Location: Akdamlar
(36.8729°N, 30.5187°E)
Time: 08:27:43
(UTC+00:00)

Tianhe-1 - Visible Passes

Search period start: 19 June 2021 00:00
Search period end: 29 June 2021 00:00
Orbit: 375 x 386 km, 41.5° (Epoch: 18 June)

Date Brightness Start Highest point End Pass type
(mag) Time Alt. Az. Time Alt. Az. Time Alt. Az.
19 Jun 2.9 00:43:38 20° SE 00:43:38 20° SE 00:45:44 10° E visible
20 Jun 1.1 01:17:28 29° SW 01:18:52 67° SSE 01:22:00 10° ENE visible
21 Jun 2.8 00:19:09 25° ESE 00:19:09 25° ESE 00:20:53 10° E visible
21 Jun 1.8 01:51:36 10° W 01:54:39 49° NNW 01:57:45 10° ENE visible
22 Jun 1.1 00:52:55 49° W 00:53:37 75° NNW 00:56:46 10° ENE visible
22 Jun 3.4 23:54:32 21° ENE 23:54:32 21° ENE 23:55:45 10° ENE visible
23 Jun 2.3 01:26:39 11° W 01:29:29 38° N 01:32:28 10° ENE visible
24 Jun 1.7 00:28:15 50° NNW 00:28:22 50° NNW 00:31:27 10° ENE visible
24 Jun 2.7 02:02:33 10° WNW 02:05:28 33° N 02:08:22 10° ENE visible
24 Jun 4.0 23:29:52 14° ENE 23:29:52 14° ENE 23:30:26 10° ENE visible
25 Jun 2.6 01:01:58 14° WNW 01:04:17 34° N 01:07:12 10° ENE visible
26 Jun 2.6 00:03:37 36° NNE 00:03:37 36° NNE 00:06:06 10° ENE visible
26 Jun 2.6 01:37:17 10° WNW 01:40:14 37° N 01:43:12 10° ENE visible
27 Jun 2.7 00:37:27 20° NW 00:39:02 33° N 00:41:56 10° ENE visible
27 Jun 3.6 23:39:16 22° NE 23:39:16 22° NE 23:40:45 10° ENE visible
28 Jun 2.1 01:11:54 10° WNW 01:14:56 45° NNE 01:17:59 10° E visible
